STARLINK-1475, 45739

Orbit data source: Space-Track

STARLINK-1475, 45739 is a payload satellite owned by SpaceX/Seattle (US) in LEO that was launched on Sat, 13 Jun 2020 UTC via an FALCON 9 launch vehicle from the Air Force Eastern Test Range (AFETR). Payload-class satellites include a variety of spacecraft equipped with specific instruments for various scientific and technological missions. These include communications satellites like Starlink; space stations such as the ISS; scientific satellites like the Hubble; Earth observation satellites from companies like Planet Labs, Umbra, and HawkEye 360; GPS; miniature CubeSats for education and research; and military/defense satellites.

Loading next visibility...
Identifier
45739, 2020-038K
Orbit
LEO
Country
Flag of USUS
Related business
Manufacturer
SpaceX/Seattle
Mission
Partially operational Commercial Communications
Bus & Motor
STARLINK, Unknown motor
Mass
260 kg wet, ~248 kg dry
Launch date (UTC)
2020-06-13 (5 years ago)
Launch vehicle
FALCON 9
Launch site
Air Force Eastern Test Range (AFETR)
Object type
Payload
Rocket body
Debris
Shape & HBR
Box + 1 Pan, 4.4 m
Radar Cross Section
13.562 m², Large (>1 m²)

Expand to show TLE details & history
Last TLE update: 7 hours ago

TLE from 7 hours ago
0 STARLINK-1475
1 45739U 20038K   25260.91668981  .00088486  00000-0  11280-2 0  9992
2 45739  53.0546 175.2066 0008740  69.9910  12.9682 15.58551003  5986
Epoch: 2025-09-17T22:00Z
TLE epoch observation values (Epoch: 2025-09-17T22:00:01.999Z)
Latitude
52.64122°
Longitude
-73.47601°
Altitude
392.481 km
Speed
7.684 km/s
True Right ascension
16h 54m 28s
True Declination
52° 27' 58"
Sunlit
Object was in daylight at epoch
Visualization orbit readout
Latitude
Unknown
Longitude
Unknown
Altitude
Unknown
Speed
Unknown
Apparent Right ascension
Unknown
Apparent Declination
Unknown
Sunlit
N/A
Visualization observer readout
Local Sidereal Time
21:59:24
Azimuth
Unknown
Elevation
Unknown
Doppler factor
Unknown
Orbital elements
Apogee altitude
398.044 km
Perigee altitude
386.209 km
Semi-major axis
6,770.264 km
Eccentricity
0.00087
Inclination
53.0546°
RAAN
175.2066°
Arg. of periapsis
69.991°
True anomaly
12.9907°
Mean anomaly
12.9682°
Eccentric anomaly
12.97945°
Mean motion
3.89614 °/min
Orbital period
92.4 mins
BSTAR
0.001128
Loading maneuver chart data...
Computing Atmospheric mass density...

Documentation

Showing up to 5 results
|